Simultaneous Nadir Overpasses (SNOs) Predictions

Prediction of SNOs between GOES-15 and TERRA Satellite Orbit:

Table of predicted SNOs for the next 14.0 days since TLE Epoch: 11/14/2025
Index Date Time (GOES-15) GOES-15 Lat,Lon TERRA Lat,Lon Distance(km) Time Diff (sec)
1 11/17/2025 05:03:04 0.69, 61.69 0.62, 61.96 30.82 80
2 11/19/2025 17:03:02 -0.68, 61.75 -0.65, 61.92 19.01 80
3 11/22/2025 05:02:51 0.68, 61.62 0.62, 61.91 32.78 80
4 11/24/2025 17:02:48 -0.67, 61.69 -0.62, 61.87 20.69 80
5 11/27/2025 05:02:34 0.67, 61.57 0.61, 61.87 33.15 80
